RH
97 95 91 91 90 90 92 92 90 88 86 84 82 82 82 81 81 82 83 83 80 74 74 75 76 78 78 79 82 83 83 84 84 79 76 70 61 58 69 80 74 73 77
95 92 93 91 90 90 91 92 90 88 87 83 84 84 83 80 78 79 79 78 73 69 70 72 74 76 77 79 81 82 82 85 84 81 73 68 67 65 65 76 79 77 78
92 89 87 92 91 90 90 90 89 88 84 84 84 84 81 78 78 79 78 75 70 67 67 69 72 74 76 79 82 82 83 83 86 84 80 85 78 66 68 79 75 77 75
90 89 90 94 94 92 91 90 89 85 85 86 84 83 79 78 77 76 76 77 70 67 66 66 69 73 78 82 84 84 83 83 85 85 87 84 78 71 63 68 74 71 74
91 90 94 96 95 94 94 92 91 92 92 89 86 81 78 77 74 72 74 73 68 66 65 65 67 71 76 80 80 78 77 78 85 85 91 90 87 73 67 68 74 75 80
98 96 96 96 96 95 95 95 95 95 92 89 87 80 77 75 73 72 73 70 67 65 65 64 65 69 73 75 75 74 75 77 81 93 93 91 87 75 68 70 79 79 81
98 97 96 97 97 95 93 93 95 94 92 91 88 83 78 76 74 72 72 70 69 67 66 66 67 68 70 71 70 75 80 82 88 92 92 93 94 78 70 71 76 77 80
90 92 95 97 96 96 95 95 95 94 94 93 90 85 79 78 78 73 71 70 69 67 67 68 70 70 71 70 73 79 81 83 85 86 82 96 90 82 73 68 78 82 82
81 85 92 94 98 98 96 95 93 92 92 92 91 88 85 85 82 78 74 70 68 66 68 69 72 73 71 73 77 80 83 84 90 84 73 90 85 80 75 71 76 79 80
86 87 94 100 99 98 98 95 94 92 91 92 90 87 85 81 81 81 80 78 75 71 71 73 75 76 75 78 79 82 81 81 84 81 88 94 82 76 70 72 75 80 84
97 99 99 99 98 98 97 93 91 88 88 88 88 86 88 90 87 85 85 82 79 78 76 78 80 82 82 81 81 83 75 76 79 75 78 82 82 75 70 70 77 79 81
97 97 98 97 97 97 81 95 95 91 94 94 92 92 94 93 94 84 86 87 85 85 84 84 86 86 89 95 90 82 74 62 66 64 69 75 71 67 70 68 72 74 78
80 83 86 88 94 95 85 98 99 98 97 96 92 94 95 93 96 96 97 96 96 90 96 94 94 96 94 95 93 90 79 60 61 58 59 69 67 68 65 62 68 64 73
78 74 77 86 88 89 92 95 94 95 96 97 95 94 96 96 92 90 92 87 83 83 83 93 96 93 90 85 89 90 83 66 58 56 62 71 71 66 60 58 58 63 68
68 70 77 86 84 80 87 90 92 93 92 91 94 90 92 89 81 82 81 80 80 81 81 78 77 74 74 75 76 75 72 66 58 55 61 66 72 67 59 56 57 56 60
60 67 76 80 81 74 79 86 88 90 93 93 92 90 81 83 83 83 79 76 78 84 84 81 80 80 81 80 71 73 76 74 65 57 55 59 68 72 73 63 58 57 56
62 66 81 84 86 80 78 80 85 90 82 88 82 70 71 76 78 75 73 70 73 79 72 73 75 77 72 70 69 71 71 70 71 67 64 59 62 68 74 76 72 71 67
76 80 91 83 90 85 77 81 84 80 76 78 77 76 71 68 68 70 65 66 72 77 76 73 76 68 70 76 74 67 67 73 70 73 74 72 71 66 69 69 69 72 73
85 88 89 95 93 91 83 86 89 80 74 67 66 72 66 64 64 67 69 76 79 76 77 75 70 74 75 74 62 62 68 72 70 71 80 77 75 70 63 63 71 72 70
93 90 92 91 87 86 77 71 82 86 82 77 68 64 62 66 68 69 74 76 79 74 73 74 73 74 75 80 56 58 65 64 69 91 87 73 72 71 66 62 71 71 74
80 81 84 82 80 77 77 83 87 74 70 72 69 74 68 62 59 67 72 73 75 72 75 76 80 79 73 81 79 64 71 59 64 85 89 88 78 74 66 65 67 63 66
75 79 73 73 71 76 84 83 81 79 70 71 64 60 59 64 63 58 68 72 76 75 75 79 83 83 85 90 94 95 85 69 82 72 82 74 84 86 76 65 70 55 55
60 62 55 58 58 65 72 72 66 67 71 70 71 67 62 63 62 65 69 77 80 81 84 87 90 90 92 91 92 94 95 96 96 83 69 76 82 83 88 88 78 63 67
58 54 50 49 50 51 54 56 57 63 67 78 77 65 62 65 64 67 72 78 82 85 88 90 88 96 96 98 96 82 91 94 97 88 79 64 78 69 87 91 87 82 82
57 55 54 51 49 50 52 57 68 71 75 80 69 62 61 67 72 70 72 70 75 83 87 87 90 90 92 94 96 96 93 92 93 91 91 79 79 78 78 92 88 92 87
63 60 56 53 55 56 58 63 71 69 74 65 62 65 65 69 74 73 67 75 82 83 85 87 88 86 89 92 94 95 95 91 94 95 97 82 85 81 85 88 92 91 89
Wind_Speed
5 5 10 13 15 15 15 14 13 12 13 14 14 13 13 13 13 12 13 12 13 14 13 14 14 14 12 12 12 12 10 10 8 5 4 5 5 4 6 6 5 3 4
10 7 11 14 15 15 15 14 13 13 14 14 13 13 12 12 12 12 13 13 13 14 13 12 12 11 11 11 10 9 8 7 7 7 7 7 7 7 6 6 3 3 2
11 10 11 13 15 14 14 14 13 14 14 13 13 12 11 12 12 12 13 12 12 12 12 12 12 12 11 11 10 10 10 9 8 10 9 4 6 3 5 6 5 3 2
11 9 10 13 14 14 14 13 13 14 13 13 12 11 11 12 11 11 11 10 11 11 11 11 11 12 11 11 11 11 11 11 12 10 5 4 3 3 3 4 6 5 4
9 8 10 14 13 14 12 12 12 12 11 11 11 11 11 11 10 9 9 9 10 10 11 11 12 12 12 13 13 13 13 14 12 9 6 4 3 6 9 7 6 5 4
7 8 11 12 12 13 12 12 12 12 10 10 10 10 10 9 8 8 8 8 8 9 9 10 10 10 9 10 10 11 12 13 11 7 7 7 5 9 9 10 5 5 4
9 8 10 11 12 13 13 13 11 10 10 10 10 10 9 8 7 6 7 6 7 7 7 8 9 9 9 10 10 10 10 11 6 6 6 7 5 12 13 10 9 8 5
12 10 9 12 12 12 12 11 10 10 10 10 8 8 8 7 6 5 5 4 5 5 6 8 8 9 9 9 9 10 9 9 6 6 7 5 8 11 12 8 8 10 9
11 10 10 9 9 10 10 10 10 11 10 9 8 7 7 7 6 5 3 3 3 3 5 6 7 7 8 8 8 10 11 10 5 3 6 4 8 10 11 8 8 10 11
11 11 10 5 5 6 6 11 10 10 9 8 6 6 6 5 3 2 1 1 2 2 4 5 5 7 8 7 7 8 11 8 6 4 2 4 11 12 11 8 10 11 10
5 5 5 6 6 5 5 6 7 8 8 8 7 6 3 1 1 2 4 4 4 5 5 6 6 7 8 9 9 7 8 4 5 4 3 7 10 12 13 11 9 11 9
7 6 6 6 6 6 6 5 4 4 3 4 4 4 2 2 3 3 4 6 7 8 9 8 8 8 7 4 4 7 3 5 4 4 3 9 12 13 13 12 10 11 12
10 7 8 7 7 6 5 4 3 3 3 3 4 4 3 3 3 2 2 3 3 5 3 5 4 3 5 4 4 5 5 5 3 4 6 11 11 12 14 14 12 10 10
10 12 10 7 7 7 3 4 4 4 4 4 4 5 3 1 1 1 0 2 2 2 4 3 3 4 5 5 5 6 6 5 4 4 6 13 14 14 15 17 16 13 11
13 11 11 10 8 6 7 5 4 4 4 3 4 4 4 3 1 0 1 2 2 2 2 3 3 4 5 5 4 5 6 6 7 4 4 11 13 16 18 17 17 17 14
12 12 9 11 7 7 5 6 5 4 4 4 3 2 3 0 2 2 2 1 1 1 1 2 1 2 3 4 6 6 5 5 6 6 5 6 13 15 19 21 22 20 18
8 8 9 5 2 3 4 4 4 4 4 3 3 3 2 3 3 4 2 1 2 3 4 3 2 2 3 3 4 5 5 6 5 6 5 5 6 11 15 20 23 22 21
6 7 7 7 8 10 4 3 3 3 4 4 4 4 5 4 3 3 4 4 4 3 3 3 3 3 3 3 3 4 4 5 6 7 5 4 5 6 9 16 19 22 24
4 8 8 7 7 2 5 5 5 4 5 5 5 4 5 5 5 4 4 5 6 5 5 4 3 3 2 4 4 2 4 4 4 4 5 6 7 7 6 13 19 19 21
9 11 9 6 5 3 3 5 3 4 5 5 4 5 7 6 7 6 5 6 5 4 6 5 4 3 2 2 4 3 4 4 3 4 4 5 6 7 8 9 8 8 17
11 10 6 6 2 3 4 3 4 3 3 3 5 7 6 5 6 6 5 5 5 5 4 4 3 4 4 5 3 6 3 4 4 3 4 4 5 6 8 9 7 8 8
9 8 8 7 5 4 3 2 2 1 2 4 3 4 5 5 5 6 5 5 6 4 6 6 5 4 2 4 3 3 4 5 3 4 2 2 4 3 5 8 8 11 9
9 7 6 6 6 6 6 3 3 2 2 1 2 2 5 5 6 7 6 5 6 5 4 4 6 7 4 3 5 2 4 3 3 2 5 1 3 3 4 5 6 9 9
5 4 4 4 4 3 3 2 2 3 2 1 2 1 3 6 6 5 5 6 5 4 5 4 5 3 3 4 3 5 2 2 3 6 3 8 4 7 5 4 5 7 7
4 4 2 2 2 1 1 3 2 3 3 3 3 4 4 5 6 6 5 4 4 3 4 5 5 5 3 1 1 3 2 4 3 3 11 5 4 5 7 4 5 5 6
5 5 4 4 5 5 5 5 5 6 5 4 2 3 2 1 3 3 3 3 4 4 4 3 2 3 2 1 1 2 2 4 6 5 5 12 10 7 3 6 4 5 5
Wind_Direction
163 153 127 121 119 119 121 124 118 114 108 101 98 97 89 81 75 72 67 61 59 63 58 56 56 54 49 41 27 29 33 25 17 17 6 336 337 1 55 84 46 18 61
130 143 128 123 124 127 129 124 125 122 111 111 106 97 92 88 80 76 75 71 69 68 67 64 64 60 51 47 32 29 29 18 355 350 344 351 332 345 18 25 52 46 5
135 136 129 124 124 126 124 126 130 123 121 113 107 104 96 88 83 77 75 74 73 72 71 67 64 59 54 45 35 19 11 5 353 341 348 2 310 298 8 360 332 351 37
131 130 125 117 120 123 130 133 128 125 123 122 116 108 97 94 90 86 83 77 72 66 63 58 52 49 45 41 39 28 16 7 354 346 345 322 293 317 284 298 318 339 340
118 124 124 115 122 126 125 129 126 122 121 120 115 106 104 102 100 95 87 78 66 57 52 48 39 30 25 22 18 12 5 358 357 357 337 297 252 243 244 263 281 318 304
108 113 121 117 117 121 122 120 127 133 127 115 112 111 113 109 107 100 88 78 67 54 43 40 38 30 21 20 12 8 3 360 1 351 337 318 303 312 314 311 301 311 308
115 119 118 119 124 130 135 136 133 131 127 126 131 128 125 120 117 110 99 84 67 52 37 34 31 25 18 13 9 4 1 1 6 346 325 310 309 317 314 303 295 292 324
132 126 129 137 139 141 140 140 141 138 140 142 137 133 137 139 141 128 105 86 67 38 19 23 20 20 19 14 4 353 349 347 8 350 327 329 309 310 316 302 297 295 311
141 143 141 151 151 145 145 148 154 152 147 141 145 156 160 161 155 146 125 83 48 25 3 11 5 4 6 358 358 349 345 340 4 353 331 317 308 302 306 309 298 292 296
148 152 154 143 142 149 161 168 162 147 143 147 159 169 166 158 157 164 190 2 333 332 336 332 340 340 335 333 337 339 341 348 345 348 347 311 308 309 307 306 314 316 304
142 156 155 157 172 158 166 173 153 154 160 165 170 180 158 126 251 274 272 287 294 294 286 290 303 305 316 320 322 328 337 324 329 321 317 302 300 298 302 306 299 299 306
177 188 188 174 171 171 169 162 157 167 175 171 169 178 198 239 251 252 266 284 287 285 284 279 279 282 298 300 306 316 301 303 311 298 283 286 289 284 282 292 291 289 293
178 181 192 187 183 173 168 163 165 174 187 200 185 185 220 235 254 285 289 305 307 292 299 303 309 311 302 304 299 291 287 289 285 293 292 283 279 276 281 284 285 278 272
178 192 185 189 178 190 154 171 182 171 186 193 202 199 183 211 221 226 235 326 359 337 319 321 323 306 293 290 273 279 283 290 288 275 282 293 300 286 281 283 285 285 279
184 189 191 184 187 182 183 172 181 197 194 208 215 203 180 201 180 192 340 37 13 5 20 356 342 326 325 321 305 278 278 274 274 276 277 278 279 284 285 282 281 282 278
189 189 176 189 182 187 178 183 190 190 203 205 212 26 63 120 116 59 33 10 326 285 245 218 226 321 330 341 340 342 326 305 293 289 284 290 287 285 283 284 284 280 277
193 178 187 156 150 147 166 175 169 180 179 147 101 95 116 91 104 141 177 265 339 341 350 12 44 85 31 8 1 348 351 343 334 314 306 288 297 293 287 288 289 287 282
155 167 66 67 57 0 10 51 48 51 53 82 82 87 103 107 70 42 14 346 332 344 1 355 7 15 28 32 346 342 347 339 340 348 354 358 344 342 332 331 318 301 294
107 85 72 57 78 310 359 45 23 60 68 59 56 41 54 64 52 33 8 354 3 17 24 5 350 18 349 355 330 326 323 325 345 19 32 37 37 35 19 8 1 331 309
71 79 74 63 60 36 10 76 58 48 45 48 51 45 29 17 37 53 44 28 23 28 21 11 8 348 309 319 316 309 308 313 7 44 49 35 25 22 12 2 353 357 348
60 62 63 95 51 99 60 38 27 52 26 38 37 28 46 61 57 61 58 46 32 46 24 13 341 344 329 355 340 329 287 302 360 59 57 38 26 10 13 3 350 342 333
87 96 77 93 82 78 78 84 106 138 78 65 55 48 49 60 48 61 54 46 46 38 21 20 25 341 327 18 341 277 341 322 17 341 49 46 27 357 6 354 341 333 326
72 95 114 125 128 128 136 103 56 67 89 73 57 30 15 33 43 41 45 50 45 49 40 31 19 18 332 331 10 344 338 316 313 312 313 312 27 1 329 325 317 317 318
123 137 111 95 87 85 111 102 142 177 176 39 66 56 20 38 39 57 51 59 73 64 59 58 55 48 27 18 330 4 311 252 304 313 359 319 328 328 288 300 304 306 306
141 133 139 110 65 43 24 37 46 49 45 62 54 38 7 37 34 38 74 102 78 84 91 82 65 55 66 81 347 314 312 318 277 319 305 305 296 294 297 248 288 292 296
36 31 31 41 35 14 44 43 66 88 105 83 35 24 23 355 185 191 111 106 125 126 107 90 69 51 31 352 261 317 313 321 315 297 284 303 301 303 293 301 296 286 292